Snowfall_Accumulation
0.0 0.0 0.0 0.0 0.0 0.0 0.0 0.0 0.0 0.0 0.0 0.0 0.0 0.0 0.0 0.0 0.0 0.0 0.0 0.0 0.0 10.7 2.4 2.0 2.9 6.2 6.8 7.4 12.7 7.9 9.5 10.2 14.5 24.9 18.5 11.2 9.6 5.2 4.4 3.8 4.0 4.2 5.6 7.6 13.2 30.6 15.7 0.4 0.1 2.0 1.8 0.1 0.1 0.0
0.0 0.0 0.0 0.0 0.0 0.0 0.0 0.0 0.0 0.0 0.0 0.0 0.0 0.0 0.0 0.0 0.0 0.0 0.0 0.0 0.0 4.5 6.1 0.0 0.0 0.0 3.9 5.0 8.2 7.7 11.1 8.2 7.2 15.3 14.6 9.0 8.4 6.6 3.9 7.0 2.5 6.9 6.3 5.3 3.6 3.3 0.9 1.0 1.5 1.7 1.0 0.5 0.1 0.2
0.0 0.0 0.0 0.0 0.0 0.0 0.0 0.0 0.0 0.0 0.0 0.0 0.0 0.0 0.0 0.0 0.0 0.0 0.0 0.0 0.0 11.3 8.1 2.3 2.7 0.5 0.0 1.2 0.5 12.7 7.9 5.9 7.4 4.2 10.4 11.0 16.6 7.7 8.9 6.7 3.6 2.4 4.9 6.7 5.2 2.5 0.6 0.0 1.1 0.7 0.1 0.1 0.0 0.1
0.0 0.0 0.0 0.0 0.0 0.0 0.0 0.0 0.0 0.0 0.0 0.0 0.0 0.0 0.0 0.0 0.0 0.0 0.0 0.0 0.0 7.7 19.6 5.1 0.0 0.8 0.0 0.0 0.0 1.0 2.8 2.8 5.3 6.4 19.6 20.0 18.0 4.0 3.7 2.5 2.9 2.3 1.7 2.4 4.7 5.5 2.4 2.1 1.1 0.9 0.5 0.0 0.0 0.0
0.0 0.0 0.0 0.0 0.0 0.0 0.0 0.0 0.0 0.0 0.0 0.0 0.0 0.0 0.0 0.0 0.0 0.0 0.0 0.0 0.0 2.3 16.0 5.4 1.4 0.9 0.0 0.0 0.0 0.0 0.5 3.3 11.8 22.4 29.3 22.7 8.8 8.9 8.2 6.3 7.0 4.5 4.0 2.5 1.3 0.7 2.4 0.8 0.3 0.1 2.0 1.0 0.4 0.1
0.0 0.0 0.0 0.0 0.0 0.0 0.0 0.0 0.0 0.0 0.0 0.0 0.0 0.0 0.0 0.0 0.0 0.0 7.0 0.0 0.0 0.0 22.6 21.1 2.6 2.4 0.4 0.0 0.2 0.8 0.6 5.4 10.1 17.3 19.6 11.1 6.3 8.8 19.8 9.8 4.6 4.6 4.9 5.4 5.0 2.1 2.4 1.4 1.3 1.0 2.6 2.0 1.3 0.5
0.0 0.0 0.0 0.0 0.0 0.0 0.0 0.0 0.0 0.0 0.0 0.0 0.0 0.0 0.0 0.0 0.0 3.9 3.1 0.1 0.0 0.0 25.6 24.9 10.0 3.1 1.5 0.4 0.9 1.3 1.6 3.8 6.8 14.1 14.2 8.8 7.2 10.9 21.8 10.3 4.4 4.6 4.9 5.7 7.1 6.3 4.9 4.7 5.0 2.3 2.6 3.0 3.6 2.7
0.0 0.0 0.0 0.0 0.0 0.0 0.0 0.0 0.0 0.0 0.0 0.0 0.0 0.0 0.0 0.0 0.0 3.8 0.4 0.0 0.0 4.0 17.0 34.9 11.3 3.4 1.8 4.9 4.4 1.4 4.6 6.8 8.3 8.2 4.2 2.6 3.0 10.1 16.5 5.4 5.6 5.6 5.3 4.5 5.3 5.4 6.2 7.1 6.4 6.1 5.4 4.8 5.5 6.3
0.0 0.0 0.0 0.0 0.0 0.0 0.0 0.0 0.0 0.0 0.0 0.0 0.0 0.0 0.0 1.9 6.3 5.1 0.0 0.0 0.0 4.4 22.1 18.8 9.4 6.7 1.1 3.5 3.6 4.5 5.1 16.3 4.9 7.1 1.6 1.0 3.6 8.8 3.9 5.0 5.1 5.1 6.3 6.8 6.7 6.4 6.9 5.8 5.6 5.9 5.9 6.1 5.1 7.0
0.0 0.0 0.0 0.0 0.0 0.0 0.0 0.0 0.0 0.0 0.0 0.0 0.0 8.9 24.2 7.9 0.0 0.0 1.6 12.8 17.8 16.6 15.5 10.5 4.0 7.1 2.1 3.3 5.8 4.5 6.3 6.3 10.4 2.7 0.3 8.1 1.5 2.1 3.6 4.9 5.9 6.5 6.5 7.3 8.4 8.9 6.3 6.5 4.9 6.3 6.4 6.6 5.4 6.1
0.0 0.0 0.0 0.0 0.0 0.0 0.0 0.0 0.0 0.0 0.0 1.4 20.9 18.3 5.1 0.3 1.4 6.7 31.0 29.3 20.0 18.4 4.6 4.1 3.8 4.8 1.3 7.3 6.8 4.5 12.0 7.2 13.8 4.7 4.5 6.0 5.6 8.3 6.3 6.8 7.4 6.5 7.0 7.9 8.4 9.4 9.7 9.7 9.7 7.9 6.9 5.9 4.8 5.0
0.0 0.0 0.0 0.0 0.0 0.0 0.0 0.0 0.0 0.1 0.4 0.1 0.0 0.5 2.5 8.5 29.3 36.0 26.9 12.5 3.9 3.1 1.2 6.2 5.8 2.7 3.9 2.7 10.0 8.6 11.9 10.9 12.0 6.2 16.3 8.0 9.1 5.0 7.2 9.7 8.2 7.0 8.0 8.4 9.2 10.9 11.1 10.4 10.6 10.9 8.9 8.2 7.3 6.3
0.0 0.0 0.0 0.0 0.0 0.0 0.0 0.0 0.0 0.0 0.0 1.1 12.3 32.3 32.2 34.5 42.0 26.7 11.3 7.0 3.3 3.9 4.3 7.1 6.8 5.8 8.2 9.9 17.0 11.9 16.5 9.0 1.0 10.5 7.9 8.1 5.0 6.2 8.0 8.6 7.9 7.8 10.1 9.7 10.1 10.6 11.6 11.5 10.9 12.0 11.9 8.6 8.0 7.9
0.0 0.0 0.0 0.0 0.0 0.0 0.0 0.0 0.0 0.3 2.7 20.5 39.9 47.9 30.9 31.4 11.4 6.6 5.2 4.7 2.8 2.2 1.9 3.6 5.3 8.7 8.9 18.5 16.8 20.2 9.7 7.1 13.7 11.3 8.5 3.6 4.6 6.2 6.9 6.7 7.9 7.8 9.2 10.1 11.0 10.6 11.7 12.2 11.4 10.1 9.6 8.3 8.0 6.4
0.0 0.0 0.0 0.0 0.0 0.0 0.0 0.0 0.0 1.0 10.1 38.8 32.0 29.5 17.9 6.8 5.9 6.8 5.8 3.8 3.3 3.8 6.8 8.0 9.8 10.3 11.9 25.1 15.4 10.1 13.9 13.8 12.6 8.9 4.1 2.5 3.8 4.7 5.2 5.4 6.6 7.4 9.1 9.5 8.8 8.2 9.4 9.7 10.5 9.0 7.8 8.0 7.2 6.5
0.0 0.0 0.0 0.0 0.0 0.0 0.0 0.0 2.6 6.1 28.1 34.7 27.0 11.9 2.8 3.1 5.1 5.0 6.2 7.2 6.6 8.0 10.8 16.8 23.4 21.1 14.7 16.1 17.2 11.8 12.6 8.5 7.0 3.6 2.7 2.9 3.0 2.8 3.6 3.8 5.2 7.2 7.8 9.6 10.4 7.4 6.9 9.1 9.3 7.9 6.7 6.5 6.2 5.6
0.0 1.4 0.0 0.0 0.0 0.0 0.3 0.8 14.9 39.6 36.9 31.5 14.1 3.1 4.1 4.6 7.5 7.8 7.8 8.3 8.1 15.1 24.0 26.8 29.8 15.6 14.8 14.6 10.9 6.7 7.8 5.3 4.7 3.9 2.4 2.2 3.2 3.6 3.4 3.2 3.8 5.1 5.4 7.7 10.8 7.7 7.7 9.3 10.4 9.4 7.6 6.0 5.2 5.5
0.2 0.0 0.0 0.0 0.5 2.3 8.2 16.5 31.1 47.3 39.3 10.2 4.8 3.5 2.7 4.1 5.0 6.0 6.9 7.0 13.8 20.6 24.3 31.2 20.9 19.1 11.9 8.1 3.6 4.8 6.3 5.6 5.4 5.8 5.2 4.0 3.4 3.0 3.0 3.5 3.4 4.0 5.6 7.6 10.4 8.7 9.1 9.9 10.0 8.4 7.2 7.5 7.0 7.3
0.4 0.0 0.0 0.0 0.5 11.9 47.3 48.5 29.3 37.5 9.8 3.2 2.9 2.9 3.1 4.1 4.9 6.5 7.1 11.1 13.7 15.5 20.6 24.6 24.1 12.6 5.6 4.9 5.8 5.9 8.3 9.2 9.3 7.7 6.6 5.8 4.5 4.0 3.4 3.7 3.7 3.3 4.1 6.2 6.7 7.8 8.3 7.9 7.6 8.4 7.0 5.7 7.6 6.8
0.0 0.0 0.0 0.1 0.0 36.9 58.8 48.2 20.5 11.9 6.5 3.0 3.1 3.8 3.6 4.2 5.4 7.4 11.2 15.2 17.6 20.8 25.0 20.4 5.2 5.4 7.5 7.4 9.5 9.8 7.3 7.1 10.1 9.6 7.0 6.3 5.5 5.5 5.2 4.5 4.1 3.9 3.8 4.7 6.2 6.4 9.5 8.5 8.3 9.3 8.3 8.2 10.2 9.0
3.7 8.5 3.4 6.2 33.1 44.7 43.1 33.7 18.6 9.7 4.0 4.2 4.7 3.4 4.3 4.7 6.0 9.6 11.2 14.4 23.2 20.9 9.8 6.2 5.9 6.2 7.5 7.7 6.7 7.8 6.7 7.6 11.0 13.6 12.1 10.5 7.0 7.5 8.0 5.7 4.1 3.7 4.7 5.3 6.7 8.1 11.2 9.9 9.2 8.5 9.0 9.0 9.4 10.7
19.0 6.8 27.9 27.7 62.5 62.3 47.7 23.9 12.2 7.3 5.3 6.1 5.3 4.5 6.9 7.7 8.5 10.1 12.4 15.3 15.9 8.5 7.2 8.6 8.5 7.8 6.4 7.0 8.9 9.7 10.1 9.5 9.1 10.0 8.7 12.0 12.3 8.9 9.9 8.4 5.9 6.0 6.1 7.8 8.7 10.1 9.9 10.0 10.9 11.9 11.6 12.4 11.7 13.0
11.1 23.1 55.4 56.8 65.7 60.3 39.1 12.0 8.1 8.7 8.6 9.8 6.3 7.7 9.5 8.4 7.8 8.3 11.1 9.6 8.3 9.1 8.5 10.0 9.9 11.3 11.0 10.2 9.8 9.7 10.9 11.1 9.6 8.9 9.8 9.1 8.6 8.6 10.2 10.0 9.8 13.3 12.0 12.1 11.9 13.2 12.3 11.1 12.0 11.9 11.4 10.7 9.2 12.0
11.4 54.3 69.0 63.9 48.2 42.2 23.2 18.2 12.9 8.8 11.2 9.8 8.9 10.0 9.9 6.9 7.7 9.4 8.6 6.8 8.3 8.8 7.8 8.2 8.3 7.4 6.4 6.9 8.4 9.8 11.1 10.8 9.4 8.0 10.6 13.7 8.0 7.7 8.1 10.2 11.3 13.3 14.7 14.1 12.9 12.6 11.3 12.3 12.5 13.3 11.1 11.6 10.5 9.3
80.0 89.6 62.3 61.7 33.6 20.1 11.9 9.9 7.8 6.8 7.3 7.7 8.6 9.1 9.0 7.7 9.4 9.7 6.6 7.9 7.9 8.6 8.7 8.3 8.4 10.6 12.4 6.5 8.1 8.8 10.1 15.5 15.8 13.0 8.2 13.7 13.4 8.8 7.5 7.7 8.6 10.2 11.9 14.2 12.0 10.7 11.0 12.3 13.2 12.1 13.1 12.1 11.7 11.1
84.6 49.4 35.3 16.4 10.3 3.8 3.0 2.9 2.8 2.8 3.9 8.7 9.5 6.0 5.6 10.4 12.2 8.3 7.4 8.7 8.1 8.6 10.1 10.3 10.7 7.5 6.4 10.6 13.0 10.7 10.3 14.6 16.8 13.4 8.6 12.5 17.6 20.5 15.1 11.5 9.2 8.2 10.9 12.2 14.3 12.3 11.0 9.5 9.9 10.5 13.2 12.3 10.2 11.2
65.8 36.9 15.0 3.8 2.4 2.6 3.5 3.1 3.6 6.2 8.9 9.7 7.3 5.5 9.3 14.7 6.3 7.2 8.7 10.1 10.5 8.8 10.4 11.4 12.8 13.1 11.2 8.5 7.3 8.5 13.7 17.9 22.4 18.0 14.4 14.2 13.4 16.0 19.8 21.2 15.5 10.7 15.2 16.8 15.3 11.6 11.9 9.5 8.3 6.3 8.8 9.3 9.9 9.7
23.4 10.7 4.7 6.3 7.2 7.6 10.7 9.8 9.3 8.3 9.0 8.0 8.5 8.7 11.0 8.9 6.7 7.6 8.7 8.1 9.6 9.4 10.1 10.9 11.7 13.1 14.6 13.6 13.8 13.9 13.1 14.9 14.1 12.5 10.7 10.4 11.0 11.1 12.4 14.2 14.1 14.2 15.8 13.4 14.3 13.5 11.7 9.7 9.8 9.0 8.2 8.3 10.3 9.8
7.7 4.6 4.7 7.2 9.8 12.7 13.5 10.7 9.7 9.2 8.5 9.1 8.3 6.5 6.5 5.4 8.1 8.4 7.4 8.0 7.4 8.0 7.8 8.5 6.6 9.8 11.0 12.5 13.8 16.3 17.1 17.0 15.0 12.5 11.1 10.1 8.1 7.4 10.6 11.9 12.1 12.0 12.3 13.5 12.1 13.9 13.7 13.8 15.5 15.4 12.5 11.5 12.5 13.8
4.4 5.0 8.1 9.3 11.5 12.6 10.6 11.2 11.3 10.5 10.5 10.2 7.1 5.5 5.2 6.9 9.3 9.3 7.7 6.7 6.7 8.0 9.2 9.8 9.8 9.6 10.5 10.1 10.3 9.8 11.6 12.8 19.0 21.6 19.1 13.3 14.1 16.2 16.1 15.5 14.2 13.7 12.2 10.9 12.8 16.0 12.5 12.1 13.5 13.3 11.6 11.4 11.2 11.5
5.6 6.5 7.3 7.7 7.7 7.2 8.5 7.7 7.7 6.3 7.0 6.9 6.7 7.0 6.8 7.5 7.3 8.3 7.1 7.5 7.8 7.7 7.2 6.7 6.4 8.9 10.6 10.4 12.2 12.1 8.3 8.8 11.3 11.9 14.2 16.1 14.1 14.2 15.4 16.3 15.2 14.7 13.8 12.8 11.0 11.3 10.7 10.2 9.9 10.3 10.5 11.1 11.4 10.6
6.5 7.0 6.6 6.7 5.7 6.2 5.9 4.7 4.1 3.3 3.4 3.4 5.1 5.5 6.4 6.7 6.0 4.6 4.6 3.6 3.3 3.7 7.1 8.2 8.6 8.1 12.1 15.0 15.8 17.6 19.8 17.7 12.1 13.1 14.6 15.2 14.2 13.5 14.2 13.7 14.4 14.4 14.0 12.7 11.5 12.3 11.4 11.6 12.9 12.3 12.5 13.2 13.1 12.0
8.0 6.5 5.7 4.6 5.8 5.3 4.8 3.6 3.4 2.8 2.4 2.4 2.3 3.2 3.8 2.9 2.4 2.0 2.4 4.1 7.4 8.1 7.9 9.5 10.6 12.7 14.2 15.6 15.6 15.5 14.1 12.7 14.2 14.4 15.7 15.6 15.6 15.7 15.5 15.0 15.1 13.7 11.7 11.5 12.9 13.6 14.1 12.8 13.8 13.4 13.1 13.0 13.3 12.7